Weather in Burannoye

Russia / Republic of Kalmykia     45°38′25″N   47°31′47″E
temp.,
°C
wind,
m/s
gust,
m/s
humid.,
%
clouds,
%
prec.,
mm/h
press.,
hPa
HPBL,
m
26 january, tue
tue2600:00+1ese7148368 0.0 1022321
03:00+2ese9178534 0.0 1020430
06:00+1ese7138949 0.0 1021350
09:00+3se8148034 0.0 1023547
12:00+6se81171100 0.0 1024647
15:00+5se71075100 0.0 1023462
18:00+3se61082100 0.0 1023333
21:00+2se6108994 0.0 1023257
27 january, wed
wed2700:00+2se6118918 0.0 1024258
03:00+1se6119014 0.0 1023244
06:00+1ese7138856 0.0 1022294
09:00+2ese8137446 0.0 1022474
12:00+4ese10146415 0.0 1021623
15:00+3ese10156543 0.0 1019573
18:00+2ese9176480 0.0 1017532
21:00+2ese10186489 0.0 1015551
28 january, thu
thu2800:00+2ese91871100 0.0 1013494
03:00+2ese101772100 0.0 1011517
06:00+1ese91674100 0.0 1010452
09:00+3ese101768100 0.0 1010569
12:00+5ese111663100 0.0 1008619
15:00+6ese111666100 0.0 1006612
18:00+4ese81477100 0.0 1006368
21:00+2e4684100 0.0 1005131
29 january, fri
fri2900:00+2ene2378100 0.0 100528
03:00+3nw5971100 0.0 1006337
06:00+3wnw81371100 0.0 1009470
09:00+3wnw697467 0.0 1011377
12:00+6nw687231 0.0 1012479
15:00+7nw466751 0.0 1012724
18:00+4nnw336685 0.0 101432
21:00+3nnw226792 0.0 101522
30 january, sat
sat3000:00+2ese237199 0.0 101525
03:00−1ese118750 0.0 101522
06:00−1nne128469 0.0 101522
09:00+3ese226582 0.0 101664
12:00+7ese334758 0.0 1015375
15:00+7se445062 0.0 1014440
18:00+2se47720 0.0 1014151
21:00+1se46780 0.0 1014141